This is the latest recevied weather packets stored in our database for station/object KO4LCK. If no packets are shown the sender has not sent any weather packets the latest 10 day(s).
| Time | Temp. | Humidity | Pressure | Rain* | Wind** | Luminosity | Snow |
|---|---|---|---|---|---|---|---|
| 1778116560 | 18.33° C | 95% | 1013.8 hPa | 13.72 mm | - | 0 W/m² | - |
| 1778116255 | 18.33° C | 95% | 1013.9 hPa | 7.11 mm | - | 0 W/m² | - |
| 1778115950 | 18.33° C | 95% | 1013.5 hPa | 11.94 mm | - | 0 W/m² | - |
| 1778115646 | 18.33° C | 95% | 1013.8 hPa | 10.67 mm | - | 0 W/m² | - |
| 1778115344 | 18.33° C | 95% | 1013.8 hPa | 4.32 mm | - | 0 W/m² | - |
| 1778115040 | 18.33° C | 95% | 1013.7 hPa | 6.1 mm | - | 0 W/m² | - |
| 1778114738 | 18.33° C | 95% | 1013.9 hPa | 4.83 mm | - | 0 W/m² | - |
| 1778114435 | 18.33° C | 95% | 1014.2 hPa | 4.83 mm | - | 0 W/m² | - |
| 1778114131 | 18.33° C | 95% | 1013.4 hPa | 6.1 mm | - | 0 W/m² | - |
| 1778113826 | 18.33° C | 94% | 1013.2 hPa | 11.94 mm | - | 0 W/m² | - |
| 1778113522 | 18.33° C | 94% | 1013.5 hPa | 33.02 mm | - | 0 W/m² | - |
| 1778113219 | 18.33° C | 94% | 1013.7 hPa | 29.46 mm | - | 1 W/m² | - |
| 1778112915 | 18.33° C | 94% | 1013.8 hPa | 19.81 mm | - | 0 W/m² | - |
| 1778112613 | 18.33° C | 93% | 1013.3 hPa | 14.99 mm | - | 0 W/m² | - |
| 1778112309 | 18.33° C | 93% | 1013.6 hPa | 6.1 mm | - | 0 W/m² | - |
| 1778112004 | 18.89° C | 92% | 1013.6 hPa | 4.83 mm | - | 0 W/m² | - |
| 1778111702 | 18.89° C | 92% | 1013.7 hPa | 1.78 mm | - | 1 W/m² | - |
| 1778111398 | 18.89° C | 91% | 1013.3 hPa | 1.27 mm | - | 1 W/m² | - |
| 1778111095 | 18.89° C | 90% | 1013 hPa | 3.05 mm | - | 1 W/m² | - |
| 1778110792 | 19.44° C | 89% | 1013.1 hPa | 4.83 mm | - | 2 W/m² | - |
| 1778110489 | 20° C | 87% | 1013.1 hPa | 3.05 mm | - | 1 W/m² | - |
| 1778110185 | 20° C | 86% | 1013.1 hPa | 0 mm | - | 1 W/m² | - |
| 1778109882 | 20° C | 84% | 1013 hPa | 0 mm | - | 2 W/m² | - |
| 1778109577 | 20° C | 83% | 1012.7 hPa | 0 mm | - | 3 W/m² | - |
| 1778109275 | 20.56° C | 82% | 1012.4 hPa | 0 mm | - | 4 W/m² | - |
* Rain latest hour (hover to see other rain measurements)
** Current wind speed in m/s (hover to see current wind gust speed)